KB3UQE Weather Reports


time (UTC)temp
F
wind
direction
speed
knots
gust
knots
rain 1hr
in
rain 24hr
in
rain mn
in
humidity
%
barometer
mb
20260510121210 61 0.0 0.0 0.00 0.00 0.00 76 1010.5
20260510121051 61 0.0 0.0 0.00 0.00 0.00 76 1010.5
20260510114210 57 0.0 0.0 0.00 0.00 0.00 76 1009.9
20260510114050 57 0.0 0.0 0.00 0.00 0.00 76 1009.9
20260510111210 55 0.0 0.0 0.00 0.00 0.00 76 1009.8
20260510111050 55 0.0 0.0 0.00 0.00 0.00 76 1009.8
20260510104210 53 0.0 0.0 0.00 0.00 0.00 74 1009.3
20260510104050 53 0.0 0.0 0.00 0.00 0.00 74 1009.3
20260510101210 53 0.0 0.0 0.00 0.00 0.00 74 1008.8
20260510101049 53 0.0 0.0 0.00 0.00 0.00 74 1008.8
20260510094810 53 0.0 0.0 0.00 0.00 0.00 74 1008.4
20260510094649 53 0.0 0.0 0.00 0.00 0.00 74 1008.4
20260510092409 54 0.0 0.0 0.00 0.00 0.00 74 1008.5
20260510092249 54 0.0 0.0 0.00 0.00 0.00 74 1008.5
20260510090009 54 0.0 0.0 0.00 0.00 0.00 75 1008.6
20260510085849 54 0.0 0.0 0.00 0.00 0.00 75 1008.6
20260510083609 53 0.0 0.0 0.00 0.00 0.00 75 1008.7
20260510083448 53 0.0 0.0 0.00 0.00 0.00 75 1008.7
20260510080609 52 0.0 0.0 0.00 0.00 0.00 73 1008.0
20260510080448 52 0.0 0.0 0.00 0.00 0.00 73 1008.0
20260510073608 53 0.0 0.0 0.00 0.00 0.00 73 1007.7
20260510073448 53 0.0 0.0 0.00 0.00 0.00 73 1007.7
20260510070608 53 0.0 0.0 0.00 0.00 0.00 73 1007.5
20260510070447 53 0.0 0.0 0.00 0.00 0.00 73 1007.5
20260510063608 54 0.0 0.0 0.00 0.00 0.00 73 1007.1
20260510063447 54 0.0 0.0 0.00 0.00 0.00 73 1007.1
20260510061207 54 0.0 0.0 0.00 0.00 0.00 74 1007.3
20260510061047 54 0.0 0.0 0.00 0.00 0.00 74 1007.3
20260510054807 54 0.0 0.0 0.00 0.00 0.00 74 1007.5
20260510054647 54 0.0 0.0 0.00 0.00 0.00 74 1007.5
20260510052407 55 0.0 0.0 0.00 0.00 0.00 74 1007.5
20260510051938 55 0.0 0.0 0.00 0.00 0.00 74 1007.5
20260510045407 55 0.0 0.0 0.00 0.00 0.00 74 1007.6
20260510045351 55 0.0 0.0 0.00 0.00 0.00 74 1007.6
20260510042406 56 0.0 0.0 0.00 0.00 0.00 74 1007.6
20260510042352 56 0.0 0.0 0.00 0.00 0.00 74 1007.6
20260510035409 56 0.0 0.0 0.00 0.00 0.00 73 1007.7
20260510035353 56 0.0 0.0 0.00 0.00 0.00 73 1007.7
20260510032905 57 0.0 0.0 0.00 0.00 0.00 73 1007.6
20260510032824 57 0.0 0.0 0.00 0.00 0.00 73 1007.6
20260510030505 58 0.0 0.0 0.00 0.00 0.00 73 1007.4
20260510030423 58 0.0 0.0 0.00 0.00 0.00 73 1007.4
20260510023505 59 0.0 0.0 0.00 0.00 0.00 73 1007.2
20260510023423 59 0.0 0.0 0.00 0.00 0.00 73 1007.2
20260510021105 60 0.0 0.0 0.00 0.00 0.00 73 1007.3
20260510021023 60 0.0 0.0 0.00 0.00 0.00 73 1007.3
20260510014705 61 0.0 0.0 0.00 0.00 0.00 73 1007.1
20260510014623 61 0.0 0.0 0.00 0.00 0.00 73 1007.1
20260510012306 62 0.0 0.0 0.00 0.00 0.00 73 1006.9
20260510012222 62 0.0 0.0 0.00 0.00 0.00 73 1006.9
20260510005904 63 0.0 0.0 0.00 0.00 0.00 73 1006.7
20260510005822 63 0.0 0.0 0.00 0.00 0.00 73 1006.7
20260510003504 64 0.0 0.0 0.00 0.00 0.00 73 1006.4
20260510003421 64 0.0 0.0 0.00 0.00 0.00 73 1006.4
20260510001403 66 0.0 0.0 0.00 0.00 0.00 73 1006.2
20260510001321 66 0.0 0.0 0.00 0.00 0.00 73 1006.2
20260509235103 68 0.0 0.0 0.00 0.00 0.00 73 1006.0
20260509234921 68 0.0 0.0 0.00 0.00 0.00 73 1006.0
20260509232703 69 0.0 0.0 0.00 0.00 0.00 73 1005.9
20260509232521 69 0.0 0.0 0.00 0.00 0.00 73 1005.9
20260509230303 70 0.0 0.0 0.00 0.00 0.00 73 1005.6
20260509230120 70 0.0 0.0 0.00 0.00 0.00 73 1005.6
20260509223903 71 0.0 0.0 0.00 0.00 0.00 72 1005.6
20260509223720 71 0.0 0.0 0.00 0.00 0.00 72 1005.6
20260509221502 72 0.0 0.0 0.00 0.00 0.00 72 1005.6
20260509221320 72 0.0 0.0 0.00 0.00 0.00 72 1005.6
20260509215102 74 0.0 0.0 0.00 0.00 0.00 72 1005.8
20260509214919 74 0.0 0.0 0.00 0.00 0.00 72 1005.8
20260509212702 75 0.0 0.0 0.00 0.00 0.00 71 1005.8
20260509212519 75 0.0 0.0 0.00 0.00 0.00 71 1005.8
20260509210302 77 0.0 0.0 0.00 0.00 0.00 68 1005.7
20260509210119 77 0.0 0.0 0.00 0.00 0.00 68 1005.7
20260509203902 79 0.0 0.0 0.00 0.00 0.00 66 1005.5
20260509203719 79 0.0 0.0 0.00 0.00 0.00 66 1005.5
20260509201501 79 0.0 0.0 0.00 0.00 0.00 67 1006.1
20260509201319 79 0.0 0.0 0.00 0.00 0.00 67 1006.1
20260509195101 77 0.0 0.0 0.00 0.00 0.00 68 1006.1
20260509194918 77 0.0 0.0 0.00 0.00 0.00 68 1006.1
20260509192701 77 0.0 0.0 0.00 0.00 0.00 67 1006.5
20260509192518 77 0.0 0.0 0.00 0.00 0.00 67 1006.5
20260509190300 76 0.0 0.0 0.00 0.00 0.00 67 1006.8
20260509190117 76 0.0 0.0 0.00 0.00 0.00 67 1006.8
20260509183900 71 0.0 0.0 0.00 0.00 0.00 69 1006.9
20260509183718 71 0.0 0.0 0.00 0.00 0.00 69 1006.9
20260509181500 70 0.0 0.0 0.00 0.00 0.00 69 1007.1
20260509181215 70 0.0 0.0 0.00 0.00 0.00 69 1007.1
20260509175100 72 0.0 0.0 0.00 0.00 0.00 71 1007.1
20260509174815 72 0.0 0.0 0.00 0.00 0.00 71 1007.1
20260509172659 76 0.0 0.0 0.00 0.00 0.00 70 1007.0
20260509172414 76 0.0 0.0 0.00 0.00 0.00 70 1007.0
20260509170259 76 0.0 0.0 0.00 0.00 0.00 70 1007.1
20260509170015 76 0.0 0.0 0.00 0.00 0.00 70 1007.1
20260509163900 74 0.0 0.0 0.00 0.00 0.00 70 1007.4
20260509163614 74 0.0 0.0 0.00 0.00 0.00 70 1007.4
20260509160859 73 0.0 0.0 0.00 0.00 0.00 71 1007.7
20260509160614 73 0.0 0.0 0.00 0.00 0.00 71 1007.7
20260509153859 72 0.0 0.0 0.00 0.00 0.00 71 1007.8
20260509153614 72 0.0 0.0 0.00 0.00 0.00 71 1007.8
20260509150859 71 0.0 0.0 0.00 0.00 0.00 70 1008.2
20260509150613 71 0.0 0.0 0.00 0.00 0.00 70 1008.2
20260509143858 72 0.0 0.0 0.00 0.00 0.00 70 1008.4
20260509143614 72 0.0 0.0 0.00 0.00 0.00 70 1008.4
20260509140857 71 0.0 0.0 0.00 0.00 0.00 70 1008.7
20260509133857 76 0.0 0.0 0.00 0.00 0.00 67 1008.4
20260509130857 74 0.0 0.0 0.00 0.00 0.00 71 1009.1
20260509123856 69 0.0 0.0 0.00 0.00 0.00 73 1009.4